Location: Wyoming Infrared Observatory
(41.0971°N, 105.9765°W)
Time: 07:49:47
(UTC-06:00)

Amateur Radio Satellites - All Passes

Search period start: 19 September 2014 07:19
Search period end: 20 September 2014 07:19
Location: Wyoming Infrared Observatory, 41.0971°N, 105.9765°W

Satellite Date Start Highest point End Downlink Frequencies (MHz)
Time Altitude Azimuth
SO-50 19 Sep 07:23:36 07:28:21 57° 54° (NE) 07:33:09 436.795 FM
STRAND 1 19 Sep 07:49:47 07:54:21 33° 263° (W) 07:58:57 ?
JAS-2 19 Sep 08:10:30 08:15:40 32° 293° (WNW) 08:21:23 435.800 - 435.900 CW/SSB, 435.910 FM
MaSat-1 19 Sep 08:23:02 08:27:44 42° 109° (ESE) 08:32:25 437.345 MHz
RS-15 19 Sep 08:27:14 08:35:25 23° 342° (NNW) 08:43:42 29.354 - 29.394 USB, Beacon 29.352 USB
ISS 19 Sep 08:28:02 08:30:54 26° 23° (NNE) 08:33:46 145.800 FM
Hamsat 19 Sep 08:34:12 08:35:07 11° 298° (WNW) 08:36:03 145.90 MHz
HO-68 19 Sep 08:42:22 08:46:36 16° 90° (E) 08:50:49 435.675 MHz FM
SO-67 19 Sep 08:45:58 08:49:07 33° 287° (WNW) 08:52:15 435.3500 MHz FM
UOSAT-12 19 Sep 09:04:10 09:08:47 49° 52° (NE) 09:13:19 437.025 FM, 437.400 FM
SO-50 19 Sep 09:05:18 09:08:30 18° 250° (WSW) 09:11:43 436.795 FM
MaSat-1 19 Sep 10:00:24 10:04:38 27° 306° (NW) 10:08:48 437.345 MHz
Oscar 11 19 Sep 10:03:29 10:06:57 23° 94° (E) 10:10:22 145.825 FM, Beacon 2401.500 USB
ISS 19 Sep 10:04:32 10:07:46 49° 221° (SW) 10:10:59 145.800 FM
UKube-1 19 Sep 10:19:17 10:23:29 45° 100° (E) 10:27:39 145.840 MHz, 145.915 MHz
HO-68 19 Sep 10:27:55 10:35:08 87° 287° (WNW) 10:42:19 435.675 MHz FM
RS-15 19 Sep 10:44:56 10:53:12 23° 18° (NNE) 11:01:37 29.354 - 29.394 USB, Beacon 29.352 USB
UOSAT-12 19 Sep 10:45:12 10:48:34 20° 250° (WSW) 10:51:53 437.025 FM, 437.400 FM
Sapphire 19 Sep 11:21:51 11:24:36 14° 103° (ESE) 11:27:22 437.095 MHz 1200 baud AX-25 AFSK
FUNcube-1 19 Sep 11:27:41 11:32:20 80° 102° (ESE) 11:36:55 145.950 - 145.970 MHz USB
Oscar 11 19 Sep 11:39:18 11:43:09 31° 290° (WNW) 11:46:57 145.825 FM, Beacon 2401.500 USB
PCSat 19 Sep 11:46:53 11:51:21 27° 108° (ESE) 11:55:49 145.825 MHz
UKube-1 19 Sep 11:56:30 11:59:19 17° 296° (WNW) 12:02:08 145.840 MHz, 145.915 MHz
JAS-1B 19 Sep 12:14:08 12:17:26 13° 55° (NE) 12:20:31 435.800 - 435.900 CW/SSB
HO-68 19 Sep 12:17:22 12:21:50 18° 306° (NW) 12:26:18 435.675 MHz FM
Uribyol 2 19 Sep 12:47:39 12:49:17 11° 58° (ENE) 12:50:54 436.500 FM
Oscar 19 19 Sep 12:57:33 13:02:02 30° 67° (ENE) 13:06:31 437.125 CW, 437.150 USB
RS-15 19 Sep 12:57:53 13:08:45 56° 49° (NE) 13:20:00 29.354 - 29.394 USB, Beacon 29.352 USB
Sapphire 19 Sep 13:01:55 13:07:19 77° 300° (WNW) 13:12:46 437.095 MHz 1200 baud AX-25 AFSK
FUNcube-1 19 Sep 13:06:32 13:08:02 11° 299° (WNW) 13:09:31 145.950 - 145.970 MHz USB
AO-27 19 Sep 13:15:54 13:19:37 20° 63° (ENE) 13:23:20 436.795 MHz FM
PCSat 19 Sep 13:29:22 13:34:31 43° 306° (NW) 13:39:42 145.825 MHz
Oscar 16 19 Sep 13:35:30 13:40:39 70° 74° (ENE) 13:45:50 437.025 USB, Beacon 2401.1428
AO-Echo 19 Sep 13:50:51 13:55:20 43° 71° (ENE) 13:59:47 ?
JAS-1B 19 Sep 13:58:28 14:07:01 67° 72° (ENE) 14:14:11 435.800 - 435.900 CW/SSB
Gurwin Techsat 1B 19 Sep 14:06:34 14:11:00 28° 66° (ENE) 14:15:27 435.225 FM
ITAMSAT 1 19 Sep 14:18:32 14:23:41 74° 74° (ENE) 14:28:51 435.822 SSB
Uribyol 2 19 Sep 14:22:46 14:27:55 85° 75° (ENE) 14:33:08 436.500 FM
AO-7 19 Sep 14:34:33 14:40:15 21° 51° (NE) 14:45:55 29.400 - 29.500 MHz
Oscar 19 19 Sep 14:36:36 14:41:16 33° 263° (W) 14:45:58 437.125 CW, 437.150 USB
TMSAT-1 19 Sep 14:43:04 14:48:02 43° 70° (ENE) 14:53:01 436.925 FM
Sapphire 19 Sep 14:48:46 14:51:40 14° 320° (NW) 14:54:35 437.095 MHz 1200 baud AX-25 AFSK
AO-27 19 Sep 14:53:42 14:58:44 52° 260° (W) 15:03:47 436.795 MHz FM
Uosat F 19 Sep 15:03:46 15:05:40 12° 59° (ENE) 15:07:34 435.120 FM
RS-15 19 Sep 15:10:36 15:20:54 45° 250° (WSW) 15:31:37 29.354 - 29.394 USB, Beacon 29.352 USB
Oscar 16 19 Sep 15:17:52 15:20:30 14° 270° (W) 15:23:08 437.025 USB, Beacon 2401.1428
AO-Echo 19 Sep 15:30:59 15:34:19 19° 267° (W) 15:37:38 ?
Gurwin Techsat 1B 19 Sep 15:45:55 15:50:48 37° 263° (W) 15:55:43 435.225 FM
JAS-1B 19 Sep 15:50:59 15:57:49 26° 265° (W) 16:03:54 435.800 - 435.900 CW/SSB
ITAMSAT 1 19 Sep 16:01:24 16:03:42 13° 270° (W) 16:06:01 435.822 SSB
Uribyol 2 19 Sep 16:06:49 16:08:03 11° 272° (W) 16:09:17 436.500 FM
AO-7 19 Sep 16:23:35 16:31:55 87° 71° (ENE) 16:40:16 29.400 - 29.500 MHz
TMSAT-1 19 Sep 16:23:57 16:28:07 23° 266° (W) 16:32:18 436.925 FM
Uosat F 19 Sep 16:38:43 16:43:43 86° 256° (WSW) 16:48:45 435.120 FM
JAS-2 19 Sep 16:40:48 16:43:36 15° 60° (ENE) 16:46:24 435.800 - 435.900 CW/SSB, 435.910 FM
OPAL 19 Sep 17:40:07 17:45:11 52° 102° (ESE) 17:50:08 ?
Saudisat 1A 19 Sep 17:44:26 17:48:50 89° 302° (WNW) 17:53:16 436.775 MHz
Hamsat 19 Sep 17:48:26 17:52:39 50° 73° (ENE) 17:56:52 145.90 MHz
AO-40 19 Sep 18:06:05 01:05:42 39° 184° (S) 06:41:10 Beacon 2401.320
MaSat-1 19 Sep 18:16:26 18:20:17 78° 63° (ENE) 18:23:33 437.345 MHz
AO-7 19 Sep 18:20:10 18:25:38 19° 269° (W) 18:31:07 29.400 - 29.500 MHz
JAS-2 19 Sep 18:22:54 18:28:10 67° 258° (WSW) 18:33:20 435.800 - 435.900 CW/SSB, 435.910 FM
KITSAT 1 19 Sep 18:33:40 18:39:57 26° 105° (ESE) 18:46:15 435.175 FM
HO-68 19 Sep 19:13:04 19:16:27 14° 51° (NE) 19:19:51 435.675 MHz FM
SO-67 19 Sep 19:18:12 19:21:38 71° 76° (ENE) 19:25:05 435.3500 MHz FM
OPAL 19 Sep 19:19:53 19:23:39 21° 299° (WNW) 19:27:22 ?
Hamsat 19 Sep 19:26:31 19:28:53 14° 269° (W) 19:31:15 145.90 MHz
Saudisat 1A 19 Sep 19:26:47 19:29:04 14° 321° (NW) 19:31:21 436.775 MHz
STRAND 1 19 Sep 19:59:43 20:04:52 82° 104° (ESE) 20:10:01 ?
Sapphire 19 Sep 20:08:01 20:11:12 16° 41° (NE) 20:14:23 437.095 MHz 1200 baud AX-25 AFSK
KITSAT 1 19 Sep 20:26:34 20:34:38 71° 303° (WNW) 20:42:44 435.175 FM
PCSat 19 Sep 20:34:19 20:38:43 24° 47° (NE) 20:43:06 145.825 MHz
HO-68 19 Sep 20:55:50 21:02:54 70° 70° (ENE) 21:10:01 435.675 MHz FM
Oscar 11 19 Sep 20:58:57 21:02:02 19° 66° (ENE) 21:05:08 145.825 FM, Beacon 2401.500 USB
UKube-1 19 Sep 21:14:43 21:18:44 39° 71° (ENE) 21:22:47 145.840 MHz, 145.915 MHz
SO-50 19 Sep 21:40:09 21:43:07 18° 110° (ESE) 21:46:08 436.795 FM
STRAND 1 19 Sep 21:41:01 21:43:21 13° 301° (WNW) 21:45:41 ?
Sapphire 19 Sep 21:50:01 21:55:29 83° 61° (ENE) 22:00:54 437.095 MHz 1200 baud AX-25 AFSK
PCSat 19 Sep 22:17:10 22:22:28 55° 246° (WSW) 22:27:43 145.825 MHz
FUNcube-1 19 Sep 22:23:46 22:28:06 62° 74° (ENE) 22:32:34 145.950 - 145.970 MHz USB
KITSAT 1 19 Sep 22:25:49 22:31:36 21° 327° (NNW) 22:37:25 435.175 FM
Oscar 11 19 Sep 22:33:50 22:37:56 39° 262° (W) 22:42:03 145.825 FM, Beacon 2401.500 USB
HO-68 19 Sep 22:46:00 22:51:11 21° 268° (W) 22:56:24 435.675 MHz FM
UKube-1 19 Sep 22:52:06 22:55:05 18° 266° (W) 22:58:05 145.840 MHz, 145.915 MHz
UOSAT-12 19 Sep 23:17:22 23:19:52 15° 108° (ESE) 23:22:24 437.025 FM, 437.400 FM
SO-50 19 Sep 23:18:53 23:23:14 51° 307° (NW) 23:27:44 436.795 FM
Sapphire 19 Sep 23:35:48 23:38:08 13° 258° (WSW) 23:40:27 437.095 MHz 1200 baud AX-25 AFSK
FUNcube-1 20 Sep 00:03:12 00:04:56 12° 271° (W) 00:06:40 145.950 - 145.970 MHz USB
KITSAT 1 20 Sep 00:29:38 00:30:58 10° 358° (N) 00:32:17 435.175 FM
Saudisat 1A 20 Sep 00:33:46 00:35:17 12° 36° (NE) 00:36:47 436.775 MHz
UOSAT-12 20 Sep 00:54:52 00:59:27 65° 305° (NW) 01:04:09 437.025 FM, 437.400 FM
JAS-1B 20 Sep 01:47:19 01:49:03 11° 88° (E) 01:50:47 435.800 - 435.900 CW/SSB
Oscar 16 20 Sep 01:48:00 01:52:13 25° 94° (E) 01:56:23 437.025 USB, Beacon 2401.1428
AO-Echo 20 Sep 01:59:10 02:01:44 14° 91° (E) 02:04:20 ?
Saudisat 1A 20 Sep 02:11:16 02:15:41 70° 56° (NE) 02:20:04 436.775 MHz
KITSAT 1 20 Sep 02:25:22 02:30:33 18° 29° (NNE) 02:35:43 435.175 FM
Gurwin Techsat 1B 20 Sep 02:26:09 02:26:19 10° 88° (E) 02:26:29 435.225 FM
ITAMSAT 1 20 Sep 02:32:03 02:36:25 26° 95° (E) 02:40:45 435.822 SSB
Uribyol 2 20 Sep 02:36:00 02:40:36 31° 96° (E) 02:45:10 436.500 FM
UOSAT-12 20 Sep 02:38:46 02:40:33 12° 325° (NW) 02:42:21 437.025 FM, 437.400 FM
ISS 20 Sep 02:46:29 02:49:44 54° 140° (SE) 02:53:00 145.800 FM
Oscar 19 20 Sep 02:47:39 02:52:51 88° 104° (ESE) 02:58:00 437.125 CW, 437.150 USB
TMSAT-1 20 Sep 02:59:59 03:03:26 17° 91° (E) 03:06:51 436.925 FM
AO-27 20 Sep 03:06:38 03:11:47 57° 101° (E) 03:16:54 436.795 MHz FM
OPAL 20 Sep 03:19:32 03:21:52 13° 56° (ENE) 03:24:11 ?
RS-15 20 Sep 03:23:06 03:32:19 32° 105° (ESE) 03:41:23 29.354 - 29.394 USB, Beacon 29.352 USB
Oscar 16 20 Sep 03:26:52 03:31:40 40° 291° (WNW) 03:36:26 437.025 USB, Beacon 2401.1428
PANSAT 20 Sep 03:32:18 03:33:58 12° 181° (S) 03:35:37 not established
JAS-1B 20 Sep 03:34:48 03:40:34 80° 286° (WNW) 03:46:18 435.800 - 435.900 CW/SSB
AO-Echo 20 Sep 03:36:05 03:40:52 63° 286° (WNW) 03:45:48 ?
Saudisat 1A 20 Sep 03:52:57 03:54:40 12° 252° (WSW) 03:56:23 436.775 MHz
Gurwin Techsat 1B 20 Sep 04:01:39 04:07:00 88° 104° (ESE) 04:12:19 435.225 FM
ITAMSAT 1 20 Sep 04:11:11 04:15:58 38° 291° (WNW) 04:20:45 435.822 SSB
Uribyol 2 20 Sep 04:15:24 04:20:02 33° 293° (WNW) 04:24:39 436.500 FM
KITSAT 1 20 Sep 04:19:57 04:27:55 58° 53° (NE) 04:35:49 435.175 FM
ISS 20 Sep 04:23:48 04:26:38 25° 338° (NNW) 04:29:27 145.800 FM
AO-7 20 Sep 04:26:01 04:32:58 29° 95° (E) 04:39:52 29.400 - 29.500 MHz
Oscar 19 20 Sep 04:29:22 04:31:25 12° 301° (WNW) 04:33:29 437.125 CW, 437.150 USB
TMSAT-1 20 Sep 04:38:30 04:43:43 59° 288° (WNW) 04:48:55 436.925 FM
Uosat F 20 Sep 04:46:56 04:51:17 29° 96° (E) 04:55:38 435.120 FM
AO-27 20 Sep 04:47:16 04:50:50 19° 298° (WNW) 04:54:24 436.795 MHz FM
OPAL 20 Sep 04:54:47 04:59:58 89° 254° (WSW) 05:05:13 ?
JAS-1B 20 Sep 05:29:11 05:30:12 11° 307° (NW) 05:31:13 435.800 - 435.900 CW/SSB
JAS-2 20 Sep 05:31:42 05:35:24 16° 92° (E) 05:39:19 435.800 - 435.900 CW/SSB, 435.910 FM
RS-15 20 Sep 05:32:44 05:43:44 71° 306° (NW) 05:54:41 29.354 - 29.394 USB, Beacon 29.352 USB
STRAND 1 20 Sep 05:39:18 05:42:08 15° 61° (ENE) 05:44:58 ?
Gurwin Techsat 1B 20 Sep 05:43:54 05:46:12 13° 301° (WNW) 05:48:29 435.225 FM
ISS 20 Sep 06:02:28 06:04:13 14° 358° (N) 06:05:59 145.800 FM
SO-50 20 Sep 06:10:32 06:14:11 21° 43° (NE) 06:17:52 436.795 FM
KITSAT 1 20 Sep 06:15:57 06:22:54 33° 253° (WSW) 06:29:49 435.175 FM
AO-7 20 Sep 06:18:04 06:26:11 63° 293° (WNW) 06:34:18 29.400 - 29.500 MHz
Uosat F 20 Sep 06:25:36 06:30:03 32° 292° (WNW) 06:34:29 435.120 FM
OPAL 20 Sep 06:38:57 06:39:31 10° 270° (W) 06:40:06 ?
Hamsat 20 Sep 07:10:02 07:14:18 77° 284° (WNW) 07:18:30 145.90 MHz
